Rbgn^[z[y[W
メイン
   新天体発見情報
     Comet P/2022 R5 (PANSTARRS)
投稿するにはまず登録を

フラット表示 前のトピック | 次のトピック
投稿者 スレッド
佐藤裕久
投稿日時: 2022-10-12 10:20
モデレータ
登録日: 2005-6-12
居住地: 日本
投稿: 2505
オンライン
Comet P/2022 R5 (PANSTARRS)

Yudish Ramanjooloo (ハワイ大学天文研究所)の通報によると、9月8.6日UT、Haleakalaにある
Pan-STARRS2の1.8-m Ritchey-Chretien 反射望遠鏡で得た4枚の45秒w-バンド画像から彗星を
発見した。
1".5-1".6のシーイングで2".4(半値全幅:FWHM)の拡散したコマが見え、p.a. 259°に向かって
長さ約7".9、幅約1".7の尾がある。
R. Weryk (西オンタリオ大学,物理および天文学科)の報告では、9月22.51日UT、R. Wainscoat
と共同で、Maunakeaにある3.6-m Canada-France-Hawaii望遠鏡で得た4枚の60秒gri-バンドフォ
ローアップ画像から、0".5のシーイングで、0".7(FWHM)の集光したコマと、p.a. 265°に約30" 
の尾が見える。
Werykは、9月23.6日、HaleakalaにあるPan-STARRS2の1.8-m Ritchey-Chretien 反射望遠鏡で得
た2枚の60秒w-バンドフォローアップ露出では、1".4 のシーイングで、1".6の集光したコマと
p.a. 265°に14 "以上の尾が見えると追記した。
佐藤英貴氏(東京都文京区,9月23.47日, 120-秒露出12枚のスタック, 0.43-m f/6.8 アストロ
グラフ, Mayhill近郊, ニューメキシコ州, 米国, 遠隔操作: 6"のコマとp.a. 265°に向かっ
て20"のまっすぐな尾が見える。5".7.の円形範囲で測定した光度は20.8等であった)らCCD観測
者によって彗星状と観測された。

彗星機能の報告は次のとおり、

OC   Date        Reporter           Coma    Tail    PA          Exposures
568  2022-09-22  R. Weryk           0".1    30"     265         4x60s
F51  2022-09-23  R. Weryk           0".2    14"     265         2x60s
H06  2022-09-23  H. Sato            6"      20"     265        12x120s
F51  2022-10-04  Y. Ramanjooloo     2".3     9".8    72-279

発見位置は次のとおり、

     2022 UT             R.A. (2000) Decl.       Mag.
     Sept. 8.60069    3 14 09.32   - 3 30 03.9   21.3
           8.60842    3 14 09.44   - 3 30 06.5   21.0
           8.61620    3 14 09.59   - 3 30 09.2   21.6
           8.62396    3 14 09.71   - 3 30 11.8   21.3

MPCの楕円軌道要素、位置推算表は次のとおり、

Orbital elements:
    P/2022 R5 (PANSTARRS)                                                       
Epoch 2022 May 21.0 TT = JDT 2459720.5                                          
T 2022 May 28.29673 TT                                  Rudenko                 
q   2.4696227            (2000.0)            P               Q                  
n   0.18314716     Peri.  240.78251     +0.96940314     +0.05649347             
a   3.0709254      Node   115.08011     +0.01335310     +0.95958066             
e   0.1958050      Incl.   15.29285     -0.24511067     +0.27570534             
P   5.38                                                                        
From 26 observations 2022 Sept. 8-Oct. 4, mean residual 0".6.                   
                                                                                
Ephemeris:
Date    TT    R. A. (2000) Decl.     Delta      r    Elong.  Phase   m1
2022 09 06    03 13 12.6 -03 16 00   1.9021  2.5167   116.3    21.0  21.4
...
2022 09 21    03 16 11.6 -04 43 46   1.7783  2.5312   128.8    18.0  21.3
...
2022 09 29    03 15 15.2 -05 34 34   1.7249  2.5397   135.6    16.0  21.2
...
2022 10 05    03 13 24.4 -06 12 09   1.6921  2.5463   140.7    14.4  21.2
2022 10 06    03 13 00.5 -06 18 14   1.6873  2.5475   141.6    14.1  21.2
2022 10 07    03 12 35.0 -06 24 16   1.6827  2.5486   142.4    13.9  21.2
...
2022 10 13    03 09 32.6 -06 58 39   1.6594  2.5556   147.1    12.2  21.2
...
2022 10 21    03 04 19.1 -07 37 43   1.6407  2.5654   152.5    10.3  21.2
...
2022 11 05    02 52 16.9 -08 18 29   1.6474  2.5848   156.0     9.0  21.2

(MPEC 2022-T88、CBET 5175)

フラット表示 前のトピック | 次のトピック

題名 投稿者 日時
 » Comet P/2022 R5 (PANSTARRS) 佐藤裕久 2022-10-12 10:20

投稿するにはまず登録を
 
© 1999 Tsutomu Seki.